Location: Chowchilla Mountain
(37.5599°N, 119.7546°W)
Time: 18:05:31
(UTC+00:00)

Meteor 1-24 Rocket - Pass Details

Date: 05 August 2024
Orbit: 790 x 925 km, 81.3° (Epoch: 12 September)

Event Time Altitude Azimuth Distance (km) Brightness Sun altitude
Rises 12:27:41 0° 343° (NNW) 3,485 7.1 -7.9°
Reaches altitude 10° 12:30:13 10° 337° (NNW) 2,562 6.3 -7.4°
Maximum altitude 12:35:42 43° 268° (W) 1,250 4.2 -6.5°
Drops below altitude 10° 12:41:17 10° 198° (SSW) 2,607 5.8 -5.5°
Sets 12:43:53 0° 192° (SSW) 3,552 6.6 -5.0°
